CW9971 Weather Reports


time (UTC)temp
C
wind
direction
speed
KPH
gust
KPH
rain 1hr
cm
rain 24hr
cm
rain mn
cm
humidity
%
barometer
mb
20260906032007 21 297 0.0 0.0 0.00 1.35 1.35 98 1010.6
20260906030045 21 297 0.0 3.2 0.00 1.35 1.35 98 1010.5
20260906025550 21 297 0.0 3.2 0.00 1.35 1.35 98 1010.5
20260906025057 21 297 0.0 3.2 0.00 1.35 1.35 98 1010.5
20260906024607 21 297 0.0 1.6 0.00 1.35 1.35 97 1010.5
20260906024002 21 297 0.0 3.2 0.00 1.35 1.35 97 1010.3
20260906022501 21 297 0.0 0.0 0.00 1.35 1.35 97 1010.3
20260906021647 22 297 0.0 0.0 0.00 1.35 1.35 97 1010.5
20260906020017 22 297 0.0 1.6 0.00 1.35 1.35 97 1010.5
20260906014517 22 297 0.0 1.6 0.00 1.35 1.35 97 1010.2
20260906013006 22 277 0.0 0.0 0.00 1.35 1.35 97 1010.1
20260906004523 22 277 0.0 0.0 0.00 1.35 1.35 96 1009.5
20260906002015 22 277 0.0 0.0 0.00 1.35 1.35 95 1009.2
20260906000016 23 277 0.0 0.0 0.00 1.35 1.35 94 1009.1
20260905235017 23 277 0.0 0.0 0.00 1.35 1.35 93 1009.2
20260905234013 23 277 0.0 1.6 0.00 1.35 1.35 93 1009.2
20260905232506 24 277 0.0 1.6 0.00 1.35 1.35 91 1009.2
20260905231122 24 277 0.0 0.0 0.00 1.35 1.35 90 1009.1
20260905223141 26 236 0.0 4.8 0.00 1.35 1.35 83 1009.4
20260905222038 27 319 1.6 3.2 0.00 1.35 1.35 79 1009.4
20260905214007 29 171 3.2 11.3 0.00 1.35 1.35 69 1009.6
20260905213512 29 86 3.2 8.0 0.00 1.35 1.35 71 1009.5
20260905213013 29 183 0.0 4.8 0.00 1.35 1.35 72 1009.6
20260905212512 29 126 1.6 8.0 0.00 1.35 1.35 69 1009.7
20260905212012 29 186 3.2 8.0 0.00 1.35 1.35 71 1009.5
20260905205016 28 132 4.8 14.5 0.00 1.35 1.35 72 1009.6
20260905204524 28 360 1.6 6.4 0.00 1.35 1.35 71 1009.6
20260905203002 28 296 1.6 8.0 0.00 1.35 1.35 72 1009.7
20260905202515 28 40 1.6 6.4 0.00 1.35 1.35 71 1009.6
20260905195511 28 338 1.6 6.4 0.00 1.35 1.35 73 1010.0
20260905194505 28 207 1.6 11.3 0.00 1.35 1.35 73 1010.1
20260905194159 27 94 1.6 11.3 0.00 1.35 1.35 74 1010.1
20260905193004 27 105 3.2 6.4 0.00 1.35 1.35 73 1010.5
20260905192658 27 88 1.6 9.7 0.00 1.35 1.35 74 1010.5
20260905191519 27 228 1.6 8.0 0.00 1.35 1.35 74 1010.5
20260905190632 27 111 4.8 11.3 0.00 1.35 1.35 73 1010.6
20260905190004 27 205 0.0 6.4 0.00 1.35 1.35 76 1010.8
20260905185655 26 193 1.6 11.3 0.00 1.35 1.35 73 1010.9
20260905185002 27 133 4.8 11.3 0.00 1.35 1.35 72 1011.2
20260905184654 27 146 3.2 8.0 0.00 1.35 1.35 75 1011.2
20260905184002 26 88 3.2 6.4 0.00 1.35 1.35 77 1011.3
20260905183658 26 337 1.6 6.4 0.00 1.35 1.35 79 1011.3
20260905183008 26 329 3.2 6.4 0.00 1.35 1.35 78 1011.5
20260905182013 25 94 3.2 11.3 0.00 1.35 1.35 79 1011.8
20260905181014 25 11 0.0 4.8 0.00 1.35 1.35 83 1012.0
20260905180130 25 16 0.0 4.8 0.00 1.35 1.35 86 1012.3
20260905175510 24 242 0.0 4.8 0.00 1.35 1.35 85 1012.3
20260905174647 23 288 1.6 6.4 0.00 1.35 1.35 88 1012.5
20260905174133 23 248 0.0 6.4 0.00 1.35 1.35 90 1012.9
20260905173621 23 80 1.6 4.8 0.00 1.35 1.35 92 1012.9
20260905172651 22 169 1.6 8.0 0.00 1.35 1.35 95 1012.8
20260905172135 22 227 0.0 4.8 0.00 1.35 1.35 96 1013.0
20260905171515 21 163 1.6 4.8 0.00 1.35 1.35 96 1013.0
20260905170657 21 230 0.0 4.8 0.00 1.35 1.35 97 1012.7
20260905170126 21 319 1.6 4.8 0.03 1.35 1.35 97 1012.7
20260905165516 21 239 1.6 3.2 0.10 1.35 1.35 97 1012.5
20260905165010 21 289 0.0 4.8 0.38 1.35 1.35 97 1012.5
20260905164655 21 290 0.0 4.8 0.69 1.35 1.35 97 1012.5
20260905164153 21 306 1.6 4.8 1.12 1.35 1.35 97 1012.6
20260905163645 20 340 1.6 3.2 1.35 1.35 1.35 97 1012.8
20260905163143 20 122 0.0 3.2 1.35 1.35 1.35 96 1012.8
20260905162642 20 91 0.0 3.2 1.35 1.35 1.35 96 1013.1
20260905162135 20 238 0.0 3.2 1.35 1.35 1.35 96 1013.2
20260905161628 20 238 1.6 3.2 1.35 1.35 1.35 95 1013.2
20260905161124 20 336 0.0 6.4 1.35 1.35 1.35 95 1013.3
20260905160513 20 57 3.2 6.4 1.35 1.35 1.35 93 1013.3
20260905160121 20 42 1.6 11.3 1.32 1.32 1.32 93 1013.6
20260905155629 21 355 3.2 14.5 1.24 1.24 1.24 92 1014.1
20260905152521 28 242 1.6 6.4 0.00 0.00 0.00 78 1012.4
20260905151156 27 171 1.6 8.0 0.00 0.00 0.00 80 1012.0
20260905150011 27 169 4.8 11.3 0.00 0.00 0.00 80 1011.7
20260905144520 27 103 1.6 8.0 0.00 0.00 0.00 80 1011.8
20260905143507 27 180 0.0 4.8 0.00 0.00 0.00 83 1011.7
20260905143001 27 115 1.6 4.8 0.00 0.00 0.00 82 1011.8
20260905141009 26 111 1.6 4.8 0.00 0.00 0.00 82 1012.0
20260905135654 26 99 1.6 6.4 0.00 0.00 0.00 84 1012.0
20260905135008 26 98 0.0 4.8 0.00 0.00 0.00 83 1012.1
20260905134003 25 113 0.0 4.8 0.00 0.00 0.00 86 1012.1
20260905133552 25 84 0.0 4.8 0.00 0.00 0.00 85 1012.1
20260905133003 25 150 0.0 3.2 0.00 0.00 0.00 87 1012.1
20260905132653 25 211 0.0 3.2 0.00 0.00 0.00 88 1012.2
20260905132138 24 211 0.0 3.2 0.00 0.00 0.00 88 1012.2
20260905124003 22 313 0.0 3.2 0.00 0.00 0.00 97 1012.5
20260905123514 21 313 0.0 3.2 0.00 0.00 0.00 97 1012.5
20260905121501 20 312 0.0 3.2 0.00 0.00 0.00 98 1012.5
20260905121010 20 312 0.0 1.6 0.00 0.00 0.00 98 1012.4
20260905115512 20 312 0.0 0.0 0.00 0.00 0.00 98 1012.2
20260905115106 19 312 0.0 0.0 0.00 0.00 0.00 98 1012.1
20260905114030 19 312 0.0 3.2 0.00 0.00 0.00 99 1012.1
20260905113155 19 313 0.0 3.2 0.00 0.00 0.00 98 1012.1
20260905112637 19 312 0.0 0.0 0.00 0.00 0.00 98 1012.0
20260905112009 19 312 0.0 1.6 0.00 0.00 0.00 98 1012.0
20260905111136 19 312 0.0 3.2 0.00 0.00 0.00 98 1011.8
20260905110516 19 312 0.0 0.0 0.00 0.00 0.00 98 1011.8
20260905105646 19 313 0.0 1.6 0.00 0.00 0.00 98 1011.6
20260905105143 19 313 0.0 1.6 0.00 0.00 0.00 98 1011.6
20260905104154 19 312 0.0 1.6 0.00 0.00 0.00 98 1011.5
20260905103654 19 313 0.0 0.0 0.00 0.00 0.00 98 1011.5
20260905103112 19 312 0.0 1.6 0.00 0.00 0.00 98 1011.5
20260905102614 19 312 0.0 1.6 0.00 0.00 0.00 98 1011.6
20260905102117 19 312 0.0 3.2 0.00 0.00 0.00 98 1011.5
20260905101005 19 313 0.0 1.6 0.00 0.00 0.00 98 1011.4
20260905100512 19 313 0.0 0.0 0.00 0.00 0.00 98 1011.3